IGO352K VOBL-VOMM

Flight info

Callsign IGO352K
Flight time 0h 44m
Altitude 23000
Route TULNA7B TULNA DCT BUTLA DCT MMV
Aircraft A20N/M-SDE2E3FGHIRWXY/LB1

Departure

Time 2026-04-27 05:32
Airport Kempegowda International Airport Bengaluru (VOBL)

Arrival

Time 2026-04-27 06:16
Airport Chennai International Airport (VOMM)
Time Latitude Longitude Altitude Speed Heading
2026-04-27 05:32 13.20527 77.68226 4083 ft 144 kts 262°
2026-04-27 05:32 13.20360 77.67123 4272 ft 167 kts 271°
2026-04-27 05:33 13.20657 77.65947 4676 ft 177 kts 294°
2026-04-27 05:33 13.21358 77.64796 4962 ft 204 kts 304°
2026-04-27 05:33 13.22271 77.63542 5167 ft 235 kts 306°
2026-04-27 05:33 13.23303 77.62129 5407 ft 262 kts 306°
2026-04-27 05:34 13.24410 77.60599 5946 ft 273 kts 306°
2026-04-27 05:34 13.25547 77.59003 6606 ft 279 kts 307°
2026-04-27 05:34 13.26686 77.57369 7273 ft 285 kts 306°
2026-04-27 05:34 13.27830 77.55690 7956 ft 290 kts 306°
2026-04-27 05:35 13.28990 77.53965 8697 ft 294 kts 306°
2026-04-27 05:35 13.30149 77.52225 9407 ft 298 kts 306°
2026-04-27 05:35 13.31055 77.50306 10053 ft 308 kts 283°
2026-04-27 05:35 13.31010 77.48080 10415 ft 327 kts 255°
2026-04-27 05:36 13.29900 77.45989 10658 ft 345 kts 226°
2026-04-27 05:36 13.27923 77.44589 11092 ft 350 kts 199°
2026-04-27 05:36 13.25531 77.44181 11673 ft 349 kts 178°
2026-04-27 05:36 13.23087 77.44089 12271 ft 355 kts 185°
2026-04-27 05:37 13.20641 77.43564 12893 ft 361 kts 194°
2026-04-27 05:37 13.18210 77.42888 13549 ft 363 kts 189°
2026-04-27 05:37 13.15700 77.42766 14119 ft 362 kts 170°
2026-04-27 05:37 13.13324 77.43542 14698 ft 359 kts 148°
2026-04-27 05:38 13.11427 77.45171 15276 ft 356 kts 127°
2026-04-27 05:38 13.10063 77.47251 15855 ft 358 kts 119°
2026-04-27 05:38 13.08812 77.49476 16433 ft 361 kts 118°
2026-04-27 05:38 13.07579 77.51747 17008 ft 364 kts 116°
2026-04-27 05:39 13.06665 77.54183 17572 ft 366 kts 101°
2026-04-27 05:39 13.06334 77.56784 18106 ft 369 kts 94°
2026-04-27 05:39 13.06199 77.59392 18573 ft 373 kts 92°
2026-04-27 05:39 13.06093 77.62056 19008 ft 376 kts 92°
2026-04-27 05:40 13.05976 77.64747 19454 ft 379 kts 92°
2026-04-27 05:40 13.05843 77.67456 19885 ft 381 kts 93°
2026-04-27 05:40 13.05696 77.70185 20324 ft 384 kts 93°
2026-04-27 05:40 13.05540 77.72934 20756 ft 387 kts 93°
2026-04-27 05:41 13.05379 77.75703 21204 ft 390 kts 93°
2026-04-27 05:41 13.05213 77.78485 21652 ft 393 kts 93°
2026-04-27 05:41 13.05047 77.81260 22093 ft 396 kts 93°
2026-04-27 05:41 13.04876 77.84095 22533 ft 399 kts 93°
2026-04-27 05:42 13.04703 77.86946 22906 ft 401 kts 93°
2026-04-27 05:42 13.04531 77.89772 22999 ft 391 kts 93°
2026-04-27 05:42 13.04361 77.92506 23003 ft 379 kts 94°
2026-04-27 05:42 13.04192 77.95200 23004 ft 376 kts 94°
2026-04-27 05:43 13.04025 77.97872 22990 ft 376 kts 94°
2026-04-27 05:43 13.03858 78.00554 22984 ft 376 kts 94°
2026-04-27 05:43 13.03693 78.03230 22987 ft 377 kts 94°
2026-04-27 05:43 13.03527 78.05909 22973 ft 377 kts 94°
2026-04-27 05:44 13.03362 78.08593 22981 ft 377 kts 94°
2026-04-27 05:44 13.03196 78.11283 22981 ft 377 kts 94°
2026-04-27 05:44 13.03031 78.13964 22975 ft 377 kts 94°
2026-04-27 05:44 13.02867 78.16616 22972 ft 377 kts 93°
2026-04-27 05:45 13.02702 78.19297 22964 ft 377 kts 94°
2026-04-27 05:45 13.02536 78.21985 22971 ft 377 kts 94°
2026-04-27 05:45 13.02369 78.24673 22965 ft 376 kts 93°
2026-04-27 05:45 13.02202 78.27361 22951 ft 376 kts 93°
2026-04-27 05:46 13.02036 78.30036 22960 ft 376 kts 94°
2026-04-27 05:46 13.01871 78.32684 22949 ft 376 kts 94°
2026-04-27 05:46 13.01704 78.35366 22950 ft 376 kts 94°
2026-04-27 05:46 13.01536 78.38050 22943 ft 376 kts 94°
2026-04-27 05:47 13.01369 78.40732 22943 ft 377 kts 94°
2026-04-27 05:47 13.01201 78.43409 22932 ft 377 kts 94°
2026-04-27 05:47 13.01032 78.46091 22936 ft 376 kts 94°
2026-04-27 05:47 13.00864 78.48768 22925 ft 377 kts 94°
2026-04-27 05:48 13.00694 78.51462 22927 ft 377 kts 94°
2026-04-27 05:48 13.00526 78.54136 22926 ft 377 kts 93°
2026-04-27 05:48 13.00358 78.56785 22912 ft 377 kts 94°
2026-04-27 05:48 13.00186 78.59507 22908 ft 377 kts 93°
2026-04-27 05:49 13.00019 78.62148 22911 ft 377 kts 94°
2026-04-27 05:49 12.99848 78.64837 22912 ft 377 kts 93°
2026-04-27 05:49 12.99677 78.67523 22905 ft 377 kts 93°
2026-04-27 05:49 12.99506 78.70202 22901 ft 376 kts 93°
2026-04-27 05:50 12.99334 78.72883 22894 ft 376 kts 93°
2026-04-27 05:50 12.99162 78.75570 22894 ft 377 kts 94°
2026-04-27 05:50 12.98993 78.78226 22883 ft 377 kts 94°
2026-04-27 05:50 12.98819 78.80940 22881 ft 377 kts 93°
2026-04-27 05:51 12.98648 78.83594 22884 ft 378 kts 93°
2026-04-27 05:51 12.98476 78.86282 22879 ft 378 kts 94°
2026-04-27 05:51 12.98303 78.88969 22868 ft 378 kts 94°
2026-04-27 05:51 12.98128 78.91673 22864 ft 378 kts 93°
2026-04-27 05:52 12.97954 78.94365 22865 ft 378 kts 94°
2026-04-27 05:52 12.97780 78.97056 22858 ft 379 kts 94°
2026-04-27 05:52 12.97605 78.99754 22856 ft 379 kts 94°
2026-04-27 05:52 12.97430 79.02460 22860 ft 379 kts 94°
2026-04-27 05:53 12.97257 79.05127 22860 ft 379 kts 94°
2026-04-27 05:53 12.97078 79.07831 22854 ft 379 kts 94°
2026-04-27 05:53 12.96669 79.10509 22849 ft 380 kts 102°
2026-04-27 05:53 12.95984 79.13126 22861 ft 380 kts 106°
2026-04-27 05:54 12.95176 79.15705 22854 ft 380 kts 108°
2026-04-27 05:54 12.94334 79.18248 22849 ft 380 kts 108°
2026-04-27 05:54 12.93480 79.20824 22858 ft 380 kts 108°
2026-04-27 05:54 12.92643 79.23408 22835 ft 381 kts 108°
2026-04-27 05:55 12.91842 79.25951 22806 ft 368 kts 107°
2026-04-27 05:55 12.91101 79.28371 22796 ft 354 kts 107°
2026-04-27 05:55 12.90374 79.30798 22309 ft 357 kts 107°
2026-04-27 05:55 12.89651 79.33241 21757 ft 359 kts 106°
2026-04-27 05:56 12.88930 79.35685 21277 ft 359 kts 106°
2026-04-27 05:56 12.88205 79.38138 20799 ft 358 kts 106°
2026-04-27 05:56 12.87481 79.40584 20321 ft 358 kts 106°
2026-04-27 05:56 12.86769 79.42991 19845 ft 357 kts 106°
2026-04-27 05:57 12.86044 79.45435 19359 ft 357 kts 106°
2026-04-27 05:57 12.85354 79.47881 18830 ft 356 kts 101°
2026-04-27 05:57 12.85184 79.50404 18368 ft 354 kts 85°
2026-04-27 05:57 12.85595 79.52882 17862 ft 353 kts 77°
2026-04-27 05:58 12.86204 79.55319 17354 ft 351 kts 75°
2026-04-27 05:58 12.86836 79.57690 16884 ft 348 kts 75°
2026-04-27 05:58 12.87469 79.60077 16404 ft 345 kts 75°
2026-04-27 05:58 12.88094 79.62473 15937 ft 342 kts 75°
2026-04-27 05:59 12.88691 79.64789 15461 ft 340 kts 75°
2026-04-27 05:59 12.89288 79.67131 15000 ft 337 kts 75°
2026-04-27 05:59 12.89873 79.69445 14540 ft 335 kts 75°
2026-04-27 05:59 12.90454 79.71746 14082 ft 332 kts 75°
2026-04-27 06:00 12.91601 79.76303 13133 ft 327 kts 75°
2026-04-27 06:00 12.92165 79.78551 12680 ft 323 kts 75°
2026-04-27 06:00 12.92720 79.80757 12250 ft 319 kts 75°
2026-04-27 06:01 12.93270 79.82948 11807 ft 315 kts 75°
2026-04-27 06:01 12.93816 79.85125 11381 ft 312 kts 75°
2026-04-27 06:01 12.94352 79.87263 10954 ft 308 kts 75°
2026-04-27 06:01 12.94874 79.89343 10637 ft 301 kts 75°
2026-04-27 06:02 12.95384 79.91384 10495 ft 288 kts 75°
2026-04-27 06:02 12.95877 79.93363 10128 ft 286 kts 75°
2026-04-27 06:02 12.96369 79.95332 9740 ft 284 kts 75°
2026-04-27 06:02 12.96856 79.97283 9349 ft 280 kts 75°
2026-04-27 06:03 12.97338 79.99207 8986 ft 277 kts 75°
2026-04-27 06:03 12.97814 80.01113 8634 ft 276 kts 75°
2026-04-27 06:03 12.98289 80.03012 8404 ft 268 kts 75°
2026-04-27 06:03 12.98734 80.04800 8261 ft 255 kts 75°
2026-04-27 06:04 12.99156 80.06509 8085 ft 240 kts 75°
2026-04-27 06:04 12.99557 80.08138 7824 ft 232 kts 75°
2026-04-27 06:04 12.99949 80.09727 7478 ft 228 kts 75°
2026-04-27 06:04 13.00329 80.11265 7292 ft 214 kts 75°
2026-04-27 06:05 13.00677 80.12682 7116 ft 199 kts 74°
2026-04-27 06:05 13.01014 80.14049 6769 ft 196 kts 74°
2026-04-27 06:05 13.01348 80.15402 6390 ft 196 kts 74°
2026-04-27 06:05 13.01687 80.16768 5977 ft 198 kts 74°
2026-04-27 06:06 13.02031 80.18142 5528 ft 200 kts 75°
2026-04-27 06:06 13.02376 80.19513 5206 ft 195 kts 76°
2026-04-27 06:06 13.02699 80.20802 5046 ft 182 kts 76°
2026-04-27 06:06 13.03000 80.22014 4906 ft 171 kts 76°
2026-04-27 06:07 13.03297 80.23211 4539 ft 176 kts 77°
2026-04-27 06:07 13.03602 80.24436 4264 ft 175 kts 77°
2026-04-27 06:07 13.03903 80.25637 4049 ft 171 kts 78°
2026-04-27 06:07 13.04194 80.26800 3833 ft 170 kts 78°
2026-04-27 06:08 13.04488 80.27981 3617 ft 171 kts 79°
2026-04-27 06:08 13.04788 80.29193 3292 ft 178 kts 78°
2026-04-27 06:08 13.05096 80.30426 2959 ft 180 kts 79°
2026-04-27 06:08 13.05412 80.31688 2626 ft 183 kts 78°
2026-04-27 06:09 13.05732 80.32960 2304 ft 185 kts 79°
2026-04-27 06:09 13.06021 80.34244 2022 ft 184 kts 85°
2026-04-27 06:09 13.06041 80.35520 1838 ft 172 kts 103°
2026-04-27 06:09 13.05719 80.36629 1828 ft 156 kts 120°
2026-04-27 06:10 13.05129 80.37543 1843 ft 152 kts 138°
2026-04-27 06:10 13.04330 80.38227 1826 ft 147 kts 160°
2026-04-27 06:10 13.03398 80.38291 1852 ft 131 kts 200°
2026-04-27 06:10 13.02768 80.37643 1846 ft 135 kts 248°
2026-04-27 06:11 13.02695 80.36671 1829 ft 139 kts 270°
2026-04-27 06:11 13.02891 80.35702 1828 ft 145 kts 288°
2026-04-27 06:11 13.03397 80.34794 1827 ft 148 kts 298°
2026-04-27 06:11 13.03962 80.33913 1835 ft 147 kts 299°
2026-04-27 06:12 13.04337 80.33337 1821 ft 146 kts 299°
2026-04-27 06:12 13.04606 80.32379 1842 ft 138 kts 264°
2026-04-27 06:12 13.04457 80.31431 1833 ft 134 kts 249°
2026-04-27 06:12 13.04140 80.30528 1830 ft 133 kts 245°
2026-04-27 06:13 13.03806 80.29644 1832 ft 133 kts 244°
2026-04-27 06:13 13.03475 80.28761 1824 ft 132 kts 245°
2026-04-27 06:13 13.03141 80.27879 1838 ft 133 kts 244°
2026-04-27 06:13 13.02802 80.26986 1773 ft 135 kts 245°
2026-04-27 06:14 13.02462 80.26089 1588 ft 134 kts 245°
2026-04-27 06:14 13.02130 80.25201 1408 ft 134 kts 246°
2026-04-27 06:14 13.01794 80.24304 1246 ft 135 kts 245°
2026-04-27 06:14 13.01456 80.23403 1063 ft 135 kts 244°
2026-04-27 06:15 13.01126 80.22518 904 ft 134 kts 244°
2026-04-27 06:15 13.00791 80.21629 735 ft 134 kts 244°
2026-04-27 06:15 13.00458 80.20742 575 ft 131 kts 245°
2026-04-27 06:15 13.00142 80.19872 375 ft 128 kts 249°
2026-04-27 06:16 12.99834 80.19023 235 ft 127 kts 248°
2026-04-27 06:16 12.99506 80.18195 94 ft 124 kts 248°
2026-04-27 06:16 12.99225 80.17438 61 ft 87 kts 248°
2026-04-27 06:16 12.99108 80.17138 57 ft 22 kts 248°
2026-04-27 06:17 12.99051 80.16979 59 ft 27 kts 250°
2026-04-27 06:17 12.98968 80.16761 57 ft 39 kts 246°
2026-04-27 06:17 12.98873 80.16516 57 ft 25 kts 249°
2026-04-27 06:17 12.98778 80.16383 54 ft 24 kts 222°
2026-04-27 06:18 12.98696 80.16315 59 ft 0 kts 219°
2026-04-27 06:18 12.98695 80.16315 59 ft 1 kts 219°
2026-04-27 06:19 12.98650 80.16277 57 ft 13 kts 219°
2026-04-27 06:19 12.98578 80.16215 56 ft 12 kts 223°
2026-04-27 06:19 12.98529 80.16141 55 ft 10 kts 231°
2026-04-27 06:19 12.98471 80.16140 56 ft 9 kts 161°
2026-04-27 06:20 12.98412 80.16161 55 ft 9 kts 161°
2026-04-27 06:20 12.98382 80.16201 56 ft 6 kts 74°
2026-04-27 06:20 12.98398 80.16242 56 ft 6 kts 69°
2026-04-27 06:20 12.98413 80.16284 57 ft 6 kts 69°
2026-04-27 06:21 12.98430 80.16330 52 ft 8 kts 69°
2026-04-27 06:21 12.98451 80.16386 56 ft 8 kts 69°
2026-04-27 06:21 12.98467 80.16430 52 ft 6 kts 69°
2026-04-27 06:21 12.98468 80.16460 54 ft 3 kts 116°
2026-04-27 06:22 12.98456 80.16474 57 ft 2 kts 142°
2026-04-27 06:22 12.98435 80.16484 56 ft 6 kts 159°
2026-04-27 06:22 12.98410 80.16492 55 ft 0 kts 163°